Location: Bluff Heights
(33.7692°N, 118.1592°W)
Time: 22:23:58
(UTC+00:00)

Vanguard 1 Rocket - Pass Details

Date: 25 September 2021
Orbit: 650 x 4225 km, 34.3° (Epoch: 26 October)

Event Time Altitude Azimuth Distance (km) Brightness Sun altitude
Exits shadow 11:05:17 39° 206° (SSW) 3,574 9.9 -32.8°
Drops below altitude 10° 11:23:22 10° 149° (SSE) 6,933 12.0 -29.3°
Sets 11:30:11 0° 143° (SE) 8,278 12.5 -28.0°
